Weather History for Provo, UT

Change the Weather History Date:

Wednesday, March 12, 2014

  Actual Average Record
Temperature  
Mean Temperature 38 °F -  
Max Temperature 51 °F 49 °F 70 °F (1989)
Min Temperature 26 °F 29 °F 20 °F (1988)
Degree Days  
Heating Degree Days 26    
Moisture  
Dew Point 23 °F    
Average Humidity 48    
Maximum Humidity 75    
Minimum Humidity 28    
Precipitation  
Precipitation 0.00 in - - ()
Sea Level Pressure  
Sea Level Pressure 30.31 in    
Wind  
Wind Speed 5 mph (NW)    
Max Wind Speed 12 mph    
Max Gust Speed -    
Visibility 11 miles    
Events      
Averages and records for this station are not official NWS values.
T = Trace of Precipitation, MM = Missing Value Source: NWS Daily Summary

Daily Weather History Graph

Daily Weather History Graph

Search for Another Location

Airport:

Trip Planner

Search our weather history database for the weather conditions in past years. The results will help you decide how hot, cold, wet, or windy it might be!

Date:

Astronomy

Mar. 12, 2014 Rise Set
Actual Time 7:43 AM MDT 7:30 PM MDT
Civil Twilight 7:16 AM MDT 7:57 PM MDT
Nautical Twilight 6:44 AM MDT 8:29 PM MDT
Astronomical Twilight 6:12 AM MDT 9:01 PM MDT
Moon 4:04 PM MDT (3/12) 5:17 AM MDT (3/12)
Length of Visible Light 12h 41m
Length of Day
11h 47m
Waxing Gibbous, 86% of the Moon is Illuminated
Mar 12
Waxing Gibbous
Mar 16
Full
Mar 23
Last Quarter
Mar 30
New
Apr 7
First Quarter

Hourly Weather History & Observations

Time (MDT) Temp. Windchill Dew Point Humidity Pressure Visibility Wind Dir Wind Speed Gust Speed Precip Events Conditions
6:52 AM 32.0 °F - 21.2 °F 64% 30.37 in 15.0 mi Calm Calm - N/A   Partly Cloudy
7:15 AM 30.2 °F - 21.2 °F 69% 30.37 in 10.0 mi Calm Calm - N/A   Clear
7:35 AM 30.2 °F - 19.4 °F 64% 30.37 in 10.0 mi Calm Calm - N/A   Clear
7:52 AM 26.6 °F - 19.4 °F 74% 30.38 in 15.0 mi Calm Calm - N/A   Clear
7:55 AM 28.4 °F - 19.4 °F 69% 30.38 in 10.0 mi Calm Calm - N/A   Clear
8:15 AM 28.4 °F 22.2 °F 21.2 °F 74% 30.38 in 10.0 mi ENE 5.8 mph - N/A   Clear
8:35 AM 30.2 °F 25.4 °F 21.2 °F 69% 30.39 in 10.0 mi East 4.6 mph - N/A   Clear
8:53 AM 32.0 °F - 24.8 °F 75% 30.39 in 15.0 mi Calm Calm - N/A   Clear
8:55 AM 32.0 °F - 24.8 °F 75% 30.39 in 10.0 mi Calm Calm - N/A   Clear
9:15 AM 33.8 °F - 19.4 °F 56% 30.40 in 10.0 mi Calm Calm - N/A   Clear
9:35 AM 35.6 °F 32.8 °F 19.4 °F 52% 30.40 in 10.0 mi NNW 3.5 mph - N/A   Clear
9:47 AM 35.6 °F 30.7 °F 21.2 °F 56% 30.41 in 15.0 mi NW 5.8 mph - N/A   Clear
9:55 AM 35.6 °F 29.2 °F 23.0 °F 60% 30.40 in 10.0 mi WNW 8.1 mph - N/A   Clear
10:15 AM 37.4 °F 31.4 °F 21.2 °F 52% 30.40 in 10.0 mi NNW 8.1 mph - N/A   Clear
10:35 AM 39.2 °F 33.6 °F 21.2 °F 49% 30.40 in 10.0 mi North 8.1 mph - N/A   Clear
10:55 AM 39.2 °F 33.0 °F 23.0 °F 52% 30.40 in 10.0 mi NNW 9.2 mph - N/A   Clear
11:15 AM 41.0 °F 35.8 °F 23.0 °F 49% 30.40 in 10.0 mi North 8.1 mph - N/A   Clear
11:35 AM 42.8 °F 38.0 °F 24.8 °F 49% 30.39 in 10.0 mi WNW 8.1 mph - N/A   Clear
11:51 AM 42.8 °F 37.0 °F 24.8 °F 49% 30.39 in 15.0 mi West 10.4 mph - N/A   Clear
11:55 AM 42.8 °F 37.5 °F 24.8 °F 49% 30.39 in 10.0 mi WNW 9.2 mph - N/A   Clear
12:15 PM 42.8 °F 37.5 °F 24.8 °F 49% 30.38 in 10.0 mi NW 9.2 mph - N/A   Clear
12:35 PM 42.8 °F 37.5 °F 23.0 °F 46% 30.37 in 10.0 mi West 9.2 mph - N/A   Clear
12:50 PM 44.6 °F 40.7 °F 24.8 °F 46% 30.37 in 15.0 mi NW 6.9 mph - N/A   Clear
12:55 PM 44.6 °F 40.2 °F 24.8 °F 46% 30.36 in 10.0 mi WNW 8.1 mph - N/A   Clear
1:15 PM 44.6 °F 40.2 °F 24.8 °F 46% 30.36 in 10.0 mi West 8.1 mph - N/A   Clear
1:35 PM 44.6 °F 40.7 °F 21.2 °F 39% 30.35 in 10.0 mi WNW 6.9 mph - N/A   Clear
1:55 PM 44.6 °F 41.4 °F 24.8 °F 46% 30.33 in 10.0 mi NW 5.8 mph - N/A   Clear
2:15 PM 46.4 °F 42.4 °F 21.2 °F 37% 30.32 in 10.0 mi NNW 8.1 mph - N/A   Clear
2:35 PM 46.4 °F 42.9 °F 21.2 °F 37% 30.30 in 10.0 mi NW 6.9 mph - N/A   Clear
2:55 PM 48.2 °F - 21.2 °F 34% 30.29 in 10.0 mi WNW 9.2 mph - N/A   Clear
2:58 PM 48.2 °F - 19.4 °F 32% 30.28 in 15.0 mi NW 8.1 mph - N/A   Clear
3:15 PM 48.2 °F - 21.2 °F 34% 30.28 in 10.0 mi NW 9.2 mph - N/A   Clear
3:35 PM 50.0 °F - 17.6 °F 28% 30.28 in 10.0 mi NW 10.4 mph - N/A   Clear
3:51 PM 50.0 °F - 21.2 °F 32% 30.27 in 15.0 mi NNW 8.1 mph - N/A   Clear
3:55 PM 50.0 °F - 21.2 °F 32% 30.27 in 10.0 mi NNW 11.5 mph - N/A   Clear
4:15 PM 50.0 °F - 21.2 °F 32% 30.26 in 10.0 mi NW 8.1 mph - N/A   Clear
4:35 PM 50.0 °F - 21.2 °F 32% 30.25 in 10.0 mi NW 8.1 mph - N/A   Clear
4:52 PM 51.8 °F - 23.0 °F 33% 30.24 in 15.0 mi WNW 8.1 mph - N/A   Clear
4:55 PM 51.8 °F - 21.2 °F 30% 30.24 in 10.0 mi WNW 9.2 mph - N/A   Clear
5:15 PM 51.8 °F - 19.4 °F 28% 30.23 in 10.0 mi WNW 10.4 mph - N/A   Clear
5:35 PM 51.8 °F - 21.2 °F 30% 30.22 in 10.0 mi NW 9.2 mph - N/A   Clear
5:52 PM 51.8 °F - 21.2 °F 30% 30.22 in 15.0 mi WNW 8.1 mph - N/A   Clear
5:55 PM 51.8 °F - 23.0 °F 33% 30.22 in 10.0 mi WNW 8.1 mph - N/A   Clear
6:15 PM 50.0 °F - 24.8 °F 37% 30.21 in 10.0 mi WNW 8.1 mph - N/A   Clear
6:35 PM 48.2 °F - 32.0 °F 54% 30.20 in 10.0 mi WNW 9.2 mph - N/A   Clear
6:50 PM 48.2 °F - 28.4 °F 46% 30.20 in 15.0 mi WNW 8.1 mph - N/A   Clear
6:55 PM 48.2 °F - 26.6 °F 43% 30.20 in 10.0 mi NW 9.2 mph - N/A   Clear
7:15 PM 46.4 °F 41.5 °F 28.4 °F 50% 30.20 in 10.0 mi NW 10.4 mph - N/A   Clear
7:35 PM 46.4 °F 41.5 °F 28.4 °F 50% 30.20 in 10.0 mi NW 10.4 mph - N/A   Clear
7:55 PM 44.6 °F 39.2 °F 28.4 °F 53% 30.20 in 10.0 mi NW 10.4 mph - N/A   Clear
7:58 PM - - - N/A% 30.20 in 15.0 mi WNW 8.1 mph - N/A   Clear
8:15 PM 44.6 °F 39.2 °F 28.4 °F 53% 30.20 in 10.0 mi NW 10.4 mph - N/A   Clear
8:35 PM 42.8 °F 36.6 °F 28.4 °F 57% 30.20 in 10.0 mi NW 11.5 mph - N/A   Clear
8:55 PM 42.8 °F 36.6 °F 28.4 °F 57% 30.20 in 10.0 mi NW 11.5 mph - N/A   Clear